CW5467 Weather Reports


time (UTC)temp
C
wind
direction
speed
KPH
gust
KPH
rain 1hr
cm
rain 24hr
cm
rain mn
cm
humidity
%
barometer
mb
20260509053000 8 167 6.4 9.7 0.00 0.00 0.00 56 1006.6
20260509051957 8 157 6.4 8.0 0.00 0.00 0.00 54 1006.7
20260509050957 8 169 4.8 9.7 0.00 0.00 0.00 53 1006.8
20260509050003 8 178 6.4 8.0 0.00 0.00 0.00 54 1006.8
20260509043957 8 161 1.6 4.8 0.00 0.00 0.00 52 1007.0
20260509040959 8 158 3.2 8.0 0.00 0.00 0.00 51 1007.1
20260509035000 8 158 3.2 4.8 0.00 0.00 0.00 54 1007.2
20260509034002 8 158 1.6 3.2 0.00 0.00 0.00 59 1007.3
20260509032958 7 158 1.6 3.2 0.00 0.00 0.00 60 1007.3
20260509031959 7 158 1.6 4.8 0.00 0.00 0.00 62 1007.4
20260509031000 8 158 0.0 1.6 0.00 0.00 0.00 61 1007.4
20260509025958 8 158 0.0 0.0 0.00 0.00 0.00 58 1007.7
20260509024957 8 158 0.0 1.6 0.00 0.00 0.00 59 1007.7
20260509023959 8 158 0.0 3.2 0.00 0.00 0.00 57 1007.8
20260509021013 8 158 1.6 4.8 0.00 0.00 0.00 58 1008.0
20260509015012 9 158 1.6 3.2 0.00 0.00 0.00 55 1007.9
20260509013001 10 158 3.2 4.8 0.00 0.00 0.00 48 1007.7
20260509012001 10 158 4.8 8.0 0.00 0.00 0.00 48 1007.7
20260509010002 12 158 4.8 8.0 0.00 0.00 0.00 39 1007.8
20260509005002 13 190 3.2 4.8 0.00 0.00 0.00 36 1007.8
20260509003958 13 111 1.6 3.2 0.00 0.00 0.00 32 1007.7
20260509003000 13 289 0.0 1.6 0.00 0.00 0.00 29 1007.8
20260509001959 14 289 1.6 4.8 0.00 0.00 0.00 34 1007.9
20260509001001 15 289 3.2 11.3 0.00 0.00 0.00 28 1007.9
20260509000004 15 315 8.0 12.9 0.00 0.00 0.00 25 1008.0
20260508235000 16 309 8.0 14.5 0.00 0.00 0.00 25 1008.2
20260508234001 16 297 8.0 16.1 0.00 0.00 0.00 23 1008.2
20260508233003 16 300 11.3 19.3 0.00 0.00 0.00 24 1008.3
20260508231957 16 286 11.3 17.7 0.00 0.00 0.00 23 1008.3
20260508231000 16 297 11.3 20.9 0.00 0.00 0.00 22 1008.3
20260508230006 16 293 14.5 20.9 0.00 0.00 0.00 22 1008.2
20260508225000 17 287 14.5 22.5 0.00 0.00 0.00 21 1008.2
20260508224002 16 328 9.7 19.3 0.00 0.00 0.00 21 1008.2
20260508223001 16 276 12.9 20.9 0.00 0.00 0.00 24 1008.3
20260508221959 16 269 20.9 27.4 0.00 0.00 0.00 24 1008.3
20260508221001 16 261 17.7 24.1 0.00 0.00 0.00 27 1008.3
20260508220004 16 259 17.7 25.7 0.00 0.00 0.00 23 1008.3
20260508214958 17 278 17.7 25.7 0.00 0.00 0.00 21 1008.4
20260508214001 17 253 14.5 24.1 0.00 0.00 0.00 25 1008.4
20260508213002 17 299 16.1 24.1 0.00 0.00 0.00 24 1008.3
20260508212002 17 258 14.5 29.0 0.00 0.00 0.00 23 1008.5
20260508210959 17 266 16.1 29.0 0.00 0.00 0.00 25 1008.5
20260508205958 17 257 19.3 25.7 0.00 0.00 0.00 22 1008.6
20260508205000 17 314 16.1 27.4 0.00 0.00 0.00 23 1008.5
20260508204000 17 294 12.9 32.2 0.00 0.00 0.00 23 1008.8
20260508202957 17 241 12.9 25.7 0.00 0.00 0.00 29 1008.9
20260508201959 17 233 17.7 25.7 0.00 0.00 0.00 25 1008.8
20260508200004 17 271 17.7 29.0 0.00 0.00 0.00 26 1009.1
20260508194958 17 264 11.3 29.0 0.00 0.00 0.00 23 1009.3
20260508194001 17 327 14.5 22.5 0.00 0.00 0.00 28 1009.3
20260508193002 17 288 17.7 27.4 0.00 0.00 0.00 27 1009.3
20260508191957 17 261 14.5 29.0 0.00 0.00 0.00 30 1009.5
20260508190003 16 206 12.9 32.2 0.00 0.00 0.00 29 1009.6
20260508184957 17 281 14.5 25.7 0.00 0.00 0.00 28 1009.6
20260508182958 17 258 20.9 27.4 0.00 0.00 0.00 30 1009.8
20260508180958 17 261 20.9 30.6 0.00 0.00 0.00 29 1010.1
20260508180006 16 254 14.5 24.1 0.00 0.00 0.00 32 1010.0
20260508175001 16 223 6.4 25.7 0.00 0.00 0.00 33 1010.2
20260508174001 16 304 8.0 19.3 0.00 0.00 0.00 34 1010.4
20260508173009 16 292 12.9 24.1 0.00 0.00 0.00 33 1010.6
20260508172000 16 244 17.7 25.7 0.00 0.00 0.00 35 1010.7
20260508171000 16 304 6.4 14.5 0.00 0.00 0.00 38 1010.8
20260508170005 16 226 6.4 17.7 0.00 0.00 0.00 41 1011.0
20260508164959 15 151 4.8 14.5 0.00 0.00 0.00 37 1011.2
20260508162959 15 256 8.0 25.7 0.00 0.00 0.00 41 1011.6
20260508162000 14 209 12.9 22.5 0.00 0.00 0.00 46 1011.7
20260508160959 14 229 11.3 20.9 0.00 0.00 0.00 43 1011.8
20260508160004 14 91 3.2 14.5 0.00 0.00 0.00 41 1011.8
20260508153007 14 360 12.9 17.7 0.00 0.00 0.00 40 1011.9
20260508151958 13 177 4.8 12.9 0.00 0.00 0.00 44 1011.9
20260508150958 13 209 3.2 11.3 0.00 0.00 0.00 47 1012.0
20260508150003 12 200 8.0 12.9 0.00 0.00 0.00 49 1012.2
20260508144958 12 261 0.0 11.3 0.00 0.00 0.00 52 1012.2
20260508144001 12 331 3.2 6.4 0.00 0.00 0.00 47 1012.3
20260508142958 12 205 1.6 9.7 0.00 0.00 0.00 61 1012.4
20260508140958 11 190 4.8 9.7 0.00 0.00 0.00 69 1012.6
20260508140005 11 163 6.4 9.7 0.00 0.00 0.00 70 1012.5
20260508134002 10 198 6.4 11.3 0.00 0.00 0.00 77 1012.5
20260508133001 10 226 3.2 8.0 0.00 0.00 0.00 77 1012.7
20260508132000 9 206 4.8 9.7 0.00 0.00 0.00 81 1012.7
20260508131000 9 188 6.4 8.0 0.00 0.00 0.00 83 1012.9
20260508130002 8 182 4.8 9.7 0.00 0.00 0.00 85 1012.9
20260508123956 7 219 4.8 6.4 0.00 0.00 0.00 90 1013.0
20260508123001 6 204 1.6 6.4 0.00 0.00 0.00 92 1012.8
20260508121958 5 156 4.8 8.0 0.00 0.00 0.00 92 1012.8
20260508120959 5 184 3.2 6.4 0.00 0.00 0.00 92 1012.6
20260508120005 3 239 0.0 1.6 0.00 0.00 0.00 93 1012.5
20260508115001 3 239 0.0 0.0 0.00 0.00 0.00 93 1012.4
20260508113958 2 239 0.0 3.2 0.00 0.00 0.00 93 1012.4
20260508112959 2 250 1.6 3.2 0.00 0.00 0.00 93 1012.3
20260508111959 1 88 0.0 1.6 0.00 0.00 0.00 93 1012.3
20260508110959 1 51 0.0 1.6 0.00 0.00 0.00 92 1012.2
20260508105000 0 258 0.0 3.2 0.00 0.00 0.00 92 1012.2
20260508103956 1 275 0.0 1.6 0.00 0.00 0.00 92 1012.1
20260508103000 0 286 0.0 3.2 0.00 0.00 0.00 92 1012.0
20260508102001 1 289 0.0 1.6 0.00 0.00 0.00 92 1011.9
20260508094003 1 192 0.0 0.0 0.00 0.00 0.00 92 1012.0
20260508093000 1 192 0.0 0.0 0.00 0.00 0.00 92 1011.9
20260508092001 1 192 0.0 0.0 0.00 0.00 0.00 92 1012.1
20260508091001 1 192 0.0 0.0 0.00 0.00 0.00 92 1012.1
20260508090004 1 192 0.0 0.0 0.00 0.00 0.00 92 1012.1
20260508085002 1 192 0.0 0.0 0.00 0.00 0.00 92 1012.1
20260508083959 1 192 0.0 0.0 0.00 0.00 0.00 91 1012.1
20260508083002 1 192 0.0 0.0 0.00 0.00 0.00 91 1012.2
20260508082000 1 192 0.0 0.0 0.00 0.00 0.00 91 1012.2
20260508080958 1 192 0.0 0.0 0.00 0.00 0.00 91 1012.2
20260508075000 2 192 4.8 6.4 0.00 0.00 0.00 91 1012.2
20260508073959 1 250 0.0 4.8 0.00 0.00 0.00 91 1012.2
20260508072001 2 250 3.2 4.8 0.00 0.00 0.00 91 1012.5
20260508071000 2 250 1.6 3.2 0.00 0.00 0.00 90 1012.7
20260508070002 2 250 1.6 3.2 0.00 0.00 0.00 90 1012.7
20260508064002 2 250 1.6 4.8 0.00 0.00 0.00 89 1012.8
20260508063001 3 250 0.0 0.0 0.00 0.00 0.00 90 1012.8
20260508061957 3 250 0.0 0.0 0.00 0.00 0.00 89 1013.0
20260508061000 3 250 0.0 0.0 0.00 0.00 0.00 88 1013.0
20260508060001 3 250 0.0 0.0 0.00 0.00 0.00 89 1013.1
20260508054957 3 250 0.0 0.0 0.00 0.00 0.00 89 1013.0
20260508053957 3 250 0.0 0.0 0.00 0.00 0.00 88 1012.9